Temperature
20 20 20 20 20 20 20 20 20 20 20 20 19 19 19 19 19 19 19 19 19 19 19 18 18 18 18 18 18 18 18 18 18 18 18 17 17 17 17 17 17 17 17
21 20 20 20 20 20 20 20 20 20 20 19 19 19 19 19 19 19 19 19 19 18 18 18 18 18 18 18 18 18 18 18 18 18 18 17 17 17 17 18 18 17 17
21 20 20 20 20 20 20 20 20 19 19 19 19 19 19 19 19 19 18 18 18 18 18 18 18 18 18 18 18 18 18 18 18 18 18 17 17 17 17 17 17 17 17
21 21 20 20 20 20 20 20 19 19 19 19 19 19 19 19 18 18 18 18 18 18 18 18 18 18 18 18 17 17 17 17 17 17 17 17 17 17 17 17 17 17 17
21 21 20 20 20 20 20 19 19 19 19 19 19 19 19 18 18 18 18 18 18 18 18 18 18 18 18 17 17 17 17 17 17 17 17 17 17 17 17 17 17 17 17
21 21 20 20 20 20 20 19 19 19 19 19 19 18 18 18 18 18 18 18 18 18 18 18 18 18 17 17 17 17 17 17 17 17 17 17 17 17 17 17 17 17 17
21 21 20 20 20 20 20 19 19 19 19 19 18 18 18 18 18 18 18 18 18 18 18 18 18 18 17 17 17 17 17 17 17 17 17 17 17 17 17 17 17 17 17
21 21 20 20 20 20 20 19 19 19 19 19 18 18 18 18 18 18 18 18 18 18 18 18 18 18 17 17 17 17 17 17 17 17 18 17 17 17 17 17 17 17 17
21 21 20 20 20 20 20 19 19 19 19 19 18 18 18 18 18 18 18 18 18 18 18 18 18 18 17 17 17 17 17 17 17 18 18 17 17 17 17 17 17 17 17
21 21 20 20 20 20 19 19 19 19 19 18 18 18 18 18 18 18 18 18 18 18 18 18 18 18 17 17 17 17 17 17 18 18 18 17 17 17 17 17 17 17 17
20 20 20 20 20 20 19 19 19 19 19 18 18 18 18 18 18 18 18 18 18 18 18 18 18 18 17 17 17 17 17 18 18 18 18 18 17 17 17 17 17 17 17
20 20 20 20 20 20 19 19 19 19 18 18 18 18 18 18 18 18 18 18 18 18 18 18 18 18 17 17 17 17 18 18 18 18 18 18 17 17 17 17 17 17 17
21 20 20 20 20 20 20 19 19 19 18 18 18 18 18 18 18 18 18 18 18 18 18 18 18 18 17 17 17 17 18 18 18 18 18 18 18 17 17 17 17 17 17
21 21 21 20 20 20 20 20 19 19 19 18 18 18 18 18 18 18 18 18 18 18 18 18 18 18 18 17 17 17 18 18 18 18 18 18 17 17 17 17 17 17 17
21 21 20 20 20 20 20 19 19 19 19 18 18 18 18 18 18 18 18 18 18 18 18 18 18 18 17 17 18 17 17 18 18 18 18 18 17 17 17 17 17 17 17
21 21 20 20 20 20 20 19 19 19 19 18 18 18 18 18 18 18 18 18 18 17 17 17 17 17 17 17 17 17 17 17 17 17 17 17 17 17 17 17 17 17 17
21 21 20 20 20 20 19 19 19 19 19 18 18 18 18 18 18 18 18 18 18 17 17 17 17 17 17 17 17 17 17 17 17 17 17 17 17 17 17 17 17 17 17
21 20 20 20 19 19 19 19 19 19 19 18 18 18 18 18 18 18 17 18 17 17 17 17 17 17 17 17 17 17 17 17 17 17 17 17 17 17 17 17 17 17 16
21 20 20 19 19 19 19 19 19 19 18 18 18 18 18 18 18 18 17 17 17 17 17 17 17 17 17 17 17 17 17 17 17 17 17 17 17 17 17 17 17 16 16
21 20 20 19 19 19 19 18 18 18 18 18 18 18 18 18 18 18 17 17 17 17 17 17 17 17 17 17 17 17 17 17 17 17 17 17 17 17 17 16 16 16 16
21 20 20 19 19 19 18 18 18 18 18 18 18 18 18 18 18 18 17 17 17 17 17 17 17 17 17 17 17 17 17 17 17 17 17 17 17 17 17 16 16 16 16
21 20 20 19 19 19 19 18 18 18 18 18 18 18 18 18 18 18 17 17 17 17 17 17 17 17 17 17 17 17 17 17 17 17 17 17 17 17 17 16 16 16 16
21 20 20 19 19 19 19 18 18 18 18 17 17 18 18 18 18 18 17 17 17 17 17 17 17 17 17 17 17 17 17 17 17 17 17 17 17 17 17 17 16 16 16
21 20 20 19 19 19 18 18 18 18 18 18 18 18 17 17 17 17 17 17 17 17 17 17 17 17 17 17 17 17 17 17 17 17 17 17 17 17 17 17 17 16 16
21 20 20 19 19 19 18 18 18 18 18 18 18 18 17 17 17 17 17 17 17 17 17 17 17 17 17 17 17 17 17 17 17 17 17 17 17 17 17 17 17 16 16
20 20 19 19 19 18 18 18 18 18 18 18 18 17 17 17 17 17 17 17 17 17 17 17 17 17 17 17 17 17 17 17 17 17 17 17 17 17 17 17 17 17 16
Wind_Speed
11 16 22 22 22 22 21 21 21 21 21 21 21 21 21 21 21 20 19 19 18 18 18 18 18 19 19 20 20 20 20 20 20 20 20 20 20 20 20 20 19 18 20
16 20 24 23 23 22 22 21 21 20 20 20 20 20 20 20 19 19 19 19 18 18 17 17 18 18 18 19 19 20 20 20 20 20 20 19 19 19 19 19 18 17 19
20 21 24 24 23 22 22 21 21 20 19 19 19 19 19 19 19 18 18 18 18 17 17 17 17 17 17 17 18 18 19 19 20 19 18 16 17 19 19 19 19 19 18
20 21 22 25 24 23 22 21 20 20 19 18 18 18 18 18 18 18 18 17 17 17 16 16 16 16 16 16 16 16 17 18 18 17 15 14 16 18 19 18 18 18 18
17 20 23 25 24 23 22 21 20 20 19 18 18 18 18 18 18 18 18 17 17 16 16 15 15 15 15 14 14 14 14 14 16 16 15 15 15 18 18 18 17 17 17
16 19 24 25 24 23 22 21 20 20 19 18 18 18 18 18 18 18 17 17 16 16 15 14 14 14 13 13 13 12 13 16 16 15 15 15 15 17 17 16 16 16 16
16 17 23 25 24 23 22 21 20 20 19 18 18 18 18 18 18 17 17 16 16 15 14 13 13 12 12 12 11 11 13 16 16 15 14 13 15 16 16 15 16 16 15
19 16 21 25 24 23 22 21 20 20 19 19 18 18 18 17 17 17 16 16 15 14 13 12 12 11 11 10 11 12 14 16 16 14 13 13 15 16 15 15 15 15 15
17 15 16 20 22 23 22 21 21 20 19 19 18 18 18 17 17 16 16 15 14 13 12 11 10 10 9 9 10 12 14 16 15 13 13 13 15 15 15 14 14 14 14
15 14 12 15 17 18 20 21 21 20 20 19 18 18 18 17 17 16 15 14 14 13 11 10 9 8 8 8 9 12 15 16 14 13 12 13 14 14 14 14 14 13 13
15 13 12 12 14 16 17 20 20 20 19 19 18 18 17 15 15 14 14 14 13 12 10 9 7 6 6 7 9 13 13 13 13 12 12 13 14 14 14 13 13 13 12
18 16 14 13 13 15 16 16 15 16 16 15 14 15 14 14 13 13 14 13 12 11 9 8 6 5 5 6 8 10 10 14 12 11 12 14 14 13 13 13 12 12 12
20 18 16 15 13 12 9 13 11 12 13 13 14 14 13 11 11 11 10 10 9 8 6 5 4 3 3 4 6 8 10 12 11 11 13 14 14 13 13 12 12 11 11
20 19 17 16 14 11 11 10 10 9 10 10 13 15 11 8 7 8 7 7 6 5 4 4 3 2 2 4 7 9 11 10 11 11 13 14 13 13 13 12 11 11 10
19 19 19 17 16 13 11 9 10 9 10 12 13 14 13 8 6 7 6 7 6 6 5 4 3 3 3 3 6 9 9 11 12 12 12 13 14 13 13 12 11 11 10
20 20 18 18 16 14 12 10 9 11 12 13 13 15 15 13 9 7 5 5 6 6 6 5 4 3 2 3 4 7 10 11 12 12 12 13 13 13 13 12 11 11 10
20 19 18 18 16 16 14 12 11 11 13 11 12 15 16 14 12 8 5 4 6 7 7 5 3 3 3 2 3 5 8 9 10 12 13 12 13 13 13 12 11 11 10
17 18 19 18 17 16 13 11 9 11 11 11 13 14 15 15 14 9 5 4 7 7 6 3 3 3 2 2 2 2 4 6 8 11 12 12 12 11 12 13 12 11 10
17 18 18 16 17 16 13 10 9 9 9 11 12 12 14 15 15 10 6 6 8 6 4 4 3 3 2 2 2 2 3 4 5 9 9 12 13 12 12 13 13 13 11
16 16 16 15 16 14 11 9 8 8 8 8 10 12 14 14 14 11 7 7 8 5 4 3 3 2 2 2 1 1 1 2 4 5 7 9 11 12 13 12 12 13 13
15 15 15 15 15 14 11 10 10 9 8 8 8 13 14 13 14 10 6 5 5 5 5 5 3 3 1 2 3 2 3 1 1 3 5 5 7 11 13 13 13 12 11
16 16 15 15 16 15 12 10 8 8 7 8 7 9 13 13 13 11 7 6 6 5 5 5 4 3 1 2 3 3 2 3 3 1 3 5 6 8 10 12 13 13 12
16 17 16 16 15 14 12 8 8 6 5 5 7 7 8 12 12 10 9 7 6 6 6 5 5 5 3 1 2 4 4 3 2 3 2 3 5 5 5 9 12 14 14
14 14 14 15 15 13 14 13 14 11 9 8 8 7 8 10 11 11 10 8 7 5 6 6 5 4 5 3 1 1 3 4 3 1 3 2 3 5 6 6 9 13 14
12 12 12 13 13 13 14 14 14 10 7 6 7 9 9 7 9 10 10 8 7 6 6 6 5 5 4 4 3 2 1 1 2 3 2 3 2 3 4 5 7 10 14
10 11 11 13 13 13 14 14 13 13 12 11 10 11 9 6 7 8 9 7 7 6 6 6 6 6 5 4 4 3 3 3 3 3 3 3 3 4 3 4 5 8 12
Wind_Direction
149 151 145 138 132 127 122 118 114 111 109 108 107 107 107 108 109 110 110 109 109 109 107 107 107 107 108 108 109 110 111 110 110 110 110 111 111 109 108 106 104 104 106
147 150 145 140 135 131 127 123 119 117 115 113 112 112 112 112 112 112 111 110 110 110 109 109 110 110 110 110 111 112 112 112 110 109 109 110 111 111 110 109 107 109 108
143 147 145 141 137 134 131 128 124 122 120 119 117 117 116 116 116 115 113 113 112 112 112 111 111 112 112 114 114 115 114 112 109 108 107 106 109 112 112 111 110 110 109
142 145 145 143 139 136 134 132 129 127 125 124 123 121 121 120 119 117 117 116 116 115 114 114 114 114 115 115 116 117 116 116 113 111 106 106 111 113 113 113 112 112 111
140 143 147 143 141 139 137 135 133 131 130 129 127 126 125 123 121 120 121 120 118 117 117 117 115 115 115 114 114 115 116 118 117 112 106 105 112 116 116 116 115 114 113
139 143 147 145 143 142 140 138 137 135 134 133 131 129 128 126 125 124 123 122 121 120 120 120 118 116 115 113 111 110 113 120 115 112 111 111 115 119 119 118 117 116 115
141 144 148 147 145 145 144 142 141 140 138 136 135 133 130 129 128 127 126 124 124 123 123 123 120 118 114 111 106 105 114 123 119 116 115 116 120 122 121 120 120 119 118
144 145 149 149 148 148 147 146 145 144 142 141 139 137 135 132 131 130 129 129 128 128 127 126 123 119 113 108 101 104 116 127 124 123 120 122 126 125 125 124 122 122 122
144 145 147 150 151 151 151 150 149 147 145 144 143 141 139 137 135 133 133 133 132 132 132 130 127 122 114 108 102 106 119 129 127 128 129 128 131 130 129 128 127 126 125
146 149 147 149 150 152 153 153 153 151 150 149 147 145 143 142 140 138 138 138 138 137 135 135 133 127 116 107 105 107 119 129 130 129 131 136 138 137 135 134 133 132 131
152 154 151 151 151 152 154 156 156 154 154 152 151 149 145 142 141 143 145 145 144 143 141 140 139 131 114 102 107 114 118 129 131 131 139 143 143 142 142 141 139 138 138
161 162 160 158 157 156 159 155 155 155 154 152 152 149 148 147 149 151 153 151 151 150 149 148 144 128 107 99 106 114 119 130 133 138 149 150 150 148 147 146 145 145 144
165 166 166 164 162 163 155 155 156 153 154 155 156 155 157 155 155 152 151 151 154 155 151 148 143 135 121 121 121 124 132 136 142 149 157 156 155 154 153 153 153 152 151
168 170 168 168 167 165 158 161 161 159 161 164 166 164 161 154 151 153 152 155 160 161 153 148 143 136 120 133 133 136 143 146 150 153 162 163 162 163 162 162 161 161 160
171 171 171 171 170 167 163 167 167 167 170 172 172 171 163 156 157 160 161 166 171 168 158 151 152 129 122 127 133 138 144 153 159 161 169 171 172 172 171 171 171 171 171
175 174 173 173 173 168 169 171 169 171 173 172 173 173 166 163 163 162 160 163 173 173 169 166 161 145 141 137 132 143 149 158 167 169 172 177 181 179 179 180 180 180 181
175 173 173 174 173 171 172 174 170 172 172 172 174 172 167 165 163 159 158 164 173 167 153 146 138 122 124 121 119 139 153 162 168 171 176 180 186 188 187 187 188 190 191
170 172 175 177 174 174 172 171 168 171 169 172 171 170 169 167 165 157 154 166 170 157 145 134 126 115 108 118 134 156 157 168 171 177 180 185 188 191 195 194 195 195 197
170 172 176 174 173 175 169 164 164 166 168 170 167 166 169 168 163 158 159 165 161 144 139 150 132 137 138 141 164 167 166 171 179 184 187 191 194 195 196 200 201 202 204
167 171 175 172 173 170 163 154 155 159 164 165 165 165 166 168 164 159 160 159 152 142 142 140 138 136 148 157 136 116 169 180 180 188 192 194 196 199 200 201 204 209 211
164 170 175 173 173 169 168 165 166 170 169 168 169 167 168 168 165 160 159 153 151 154 159 153 140 139 138 132 90 41 0 355 190 197 194 186 197 203 200 202 205 207 213
172 175 176 176 175 175 175 171 169 164 169 170 170 166 169 169 168 170 160 164 158 152 154 155 144 139 146 141 130 105 27 347 332 245 201 197 200 199 199 205 206 208 211
178 181 181 180 178 176 168 155 151 145 141 157 171 173 176 173 173 169 167 162 164 161 168 171 162 152 158 174 151 143 149 213 281 316 259 212 197 195 201 203 206 211 213
185 182 182 181 179 175 168 167 167 171 173 180 177 175 176 176 173 173 169 166 168 168 173 180 168 159 150 160 171 165 164 158 158 269 313 286 226 206 204 204 206 211 212
184 183 183 180 179 177 175 176 175 175 173 162 164 168 176 179 176 176 173 168 171 175 179 176 165 163 160 161 166 165 140 128 138 153 234 284 290 245 218 210 202 206 211
179 179 178 178 181 179 177 177 179 174 169 166 171 176 178 178 179 178 176 174 175 177 181 181 174 171 171 165 164 162 165 169 186 170 192 229 245 262 244 227 213 208 208
Height
1518 1521 1523 1525 1526 1528 1529 1531 1532 1533 1534 1536 1537 1538 1539 1540 1541 1542 1543 1544 1545 1546 1547 1548 1548 1549 1550 1550 1551 1552 1553 1553 1554 1554 1555 1556 1556 1557 1558 1558 1559 1560 1561
1515 1520 1524 1526 1527 1529 1530 1532 1533 1535 1536 1537 1539 1540 1541 1542 1543 1544 1545 1546 1547 1548 1549 1550 1550 1551 1552 1553 1554 1554 1555 1556 1556 1557 1558 1558 1559 1560 1560 1561 1561 1562 1563
1516 1520 1524 1526 1528 1530 1531 1533 1534 1536 1537 1539 1540 1541 1543 1544 1545 1546 1547 1548 1549 1550 1551 1552 1553 1553 1554 1555 1556 1557 1558 1558 1559 1559 1560 1560 1561 1562 1563 1563 1564 1564 1565
1516 1520 1524 1527 1529 1531 1532 1534 1536 1537 1539 1540 1542 1543 1544 1545 1546 1547 1548 1549 1550 1552 1553 1554 1555 1556 1557 1558 1558 1559 1560 1561 1561 1562 1562 1563 1563 1564 1565 1565 1566 1567 1567
1518 1521 1524 1527 1529 1532 1533 1535 1537 1538 1540 1542 1543 1544 1545 1546 1548 1549 1550 1551 1552 1553 1555 1556 1557 1558 1559 1560 1561 1562 1562 1563 1564 1564 1565 1565 1566 1567 1567 1568 1568 1569 1570
1518 1522 1525 1528 1530 1532 1534 1536 1538 1539 1541 1543 1544 1545 1547 1548 1549 1550 1551 1552 1554 1555 1556 1558 1559 1560 1561 1562 1563 1564 1565 1565 1566 1566 1567 1567 1568 1569 1570 1570 1571 1571 1572
1518 1522 1525 1528 1530 1533 1535 1537 1538 1540 1542 1544 1545 1547 1548 1549 1550 1552 1553 1554 1555 1557 1558 1560 1561 1562 1564 1565 1565 1566 1567 1567 1568 1568 1569 1570 1570 1571 1572 1572 1573 1573 1574
1518 1522 1525 1528 1531 1533 1535 1537 1539 1541 1543 1544 1546 1548 1549 1550 1552 1553 1554 1556 1557 1558 1560 1561 1563 1565 1566 1567 1567 1568 1569 1569 1570 1571 1571 1572 1572 1573 1573 1574 1575 1575 1576
1519 1522 1525 1528 1531 1533 1535 1537 1539 1541 1543 1545 1547 1548 1550 1551 1553 1554 1556 1557 1559 1560 1562 1563 1565 1566 1568 1568 1569 1570 1570 1571 1572 1572 1573 1574 1574 1575 1575 1576 1577 1577 1578
1519 1522 1524 1527 1530 1533 1535 1537 1539 1542 1544 1546 1547 1549 1551 1552 1554 1556 1557 1559 1560 1562 1563 1565 1566 1568 1569 1570 1571 1572 1572 1573 1574 1574 1575 1575 1576 1577 1577 1578 1578 1579 1579
1518 1521 1524 1526 1529 1532 1535 1537 1539 1542 1544 1546 1548 1550 1551 1553 1555 1556 1558 1560 1562 1563 1565 1566 1568 1570 1571 1572 1573 1573 1574 1574 1575 1576 1576 1577 1577 1578 1579 1579 1580 1580 1581
1515 1519 1522 1525 1528 1531 1534 1536 1539 1541 1544 1546 1548 1550 1552 1554 1556 1557 1559 1561 1563 1564 1566 1568 1569 1571 1572 1573 1574 1574 1575 1575 1576 1577 1577 1578 1578 1579 1580 1580 1581 1581 1582
1512 1516 1520 1524 1527 1530 1532 1535 1538 1541 1543 1546 1548 1550 1552 1554 1556 1558 1560 1562 1564 1565 1567 1569 1570 1571 1573 1574 1574 1575 1576 1577 1577 1578 1578 1579 1580 1580 1581 1582 1582 1583 1583
1511 1515 1519 1522 1525 1529 1531 1534 1537 1540 1542 1545 1548 1550 1552 1554 1556 1558 1561 1563 1564 1566 1568 1569 1571 1572 1573 1574 1575 1576 1576 1577 1578 1579 1579 1580 1581 1581 1582 1583 1583 1584 1584
1509 1513 1516 1520 1524 1527 1530 1533 1536 1539 1542 1545 1547 1550 1552 1554 1556 1559 1561 1563 1565 1567 1568 1570 1571 1573 1573 1574 1575 1576 1577 1578 1579 1580 1580 1581 1581 1582 1583 1583 1584 1584 1585
1507 1511 1515 1518 1522 1525 1528 1531 1535 1538 1541 1544 1546 1549 1552 1554 1556 1558 1560 1563 1565 1567 1569 1570 1572 1573 1574 1575 1576 1577 1578 1578 1579 1580 1581 1581 1582 1582 1583 1583 1584 1585 1585
1504 1508 1512 1516 1520 1523 1527 1530 1533 1537 1540 1543 1545 1548 1551 1553 1556 1558 1560 1562 1564 1566 1568 1570 1571 1573 1574 1575 1576 1577 1578 1579 1580 1580 1581 1582 1582 1583 1583 1584 1584 1585 1585
1502 1506 1510 1514 1518 1521 1525 1528 1531 1535 1538 1541 1544 1547 1550 1553 1555 1557 1560 1562 1564 1566 1567 1569 1571 1572 1574 1575 1576 1577 1578 1579 1580 1580 1581 1582 1582 1583 1583 1583 1584 1584 1585
1500 1503 1507 1510 1515 1519 1523 1527 1530 1533 1536 1540 1543 1546 1549 1552 1554 1557 1559 1561 1563 1565 1567 1569 1570 1572 1573 1574 1576 1577 1578 1578 1579 1580 1581 1582 1582 1583 1583 1583 1583 1584 1584
1497 1501 1504 1507 1512 1516 1521 1524 1528 1531 1535 1538 1541 1544 1547 1550 1553 1555 1558 1560 1562 1564 1566 1568 1569 1571 1573 1574 1575 1576 1577 1578 1579 1579 1580 1581 1582 1582 1582 1583 1583 1583 1584
1494 1498 1501 1504 1509 1513 1517 1520 1523 1527 1531 1535 1538 1542 1545 1548 1551 1553 1556 1558 1560 1562 1564 1566 1568 1570 1571 1573 1574 1575 1576 1577 1578 1578 1579 1580 1580 1581 1582 1582 1582 1583 1583
1489 1493 1497 1501 1505 1508 1512 1517 1521 1525 1529 1532 1536 1540 1543 1546 1549 1552 1554 1556 1558 1560 1563 1564 1566 1568 1570 1571 1573 1574 1575 1577 1576 1577 1578 1578 1579 1580 1580 1581 1581 1582 1582
1486 1490 1493 1496 1501 1505 1509 1514 1518 1523 1527 1530 1533 1536 1540 1544 1547 1549 1552 1554 1556 1558 1560 1562 1564 1566 1568 1570 1571 1573 1573 1574 1575 1576 1576 1577 1577 1578 1579 1579 1580 1580 1580
1482 1486 1490 1493 1497 1501 1506 1510 1513 1516 1520 1524 1528 1533 1537 1541 1544 1547 1550 1552 1554 1556 1558 1560 1562 1564 1566 1568 1569 1571 1572 1572 1573 1574 1575 1575 1576 1576 1577 1577 1578 1578 1579
1479 1482 1486 1490 1494 1498 1502 1505 1509 1513 1518 1522 1527 1530 1534 1538 1541 1544 1547 1550 1552 1554 1556 1558 1560 1562 1564 1565 1567 1568 1569 1570 1571 1572 1572 1573 1574 1574 1575 1575 1576 1576 1576
1476 1479 1482 1485 1489 1494 1498 1502 1505 1510 1514 1519 1523 1526 1531 1535 1538 1542 1545 1547 1549 1551 1554 1556 1558 1559 1561 1563 1565 1566 1567 1568 1569 1570 1570 1571 1571 1572 1573 1573 1574 1574 1574